Wind_Speed
14 15 15 16 16 15 15 16 16 15 15 16 17 18 18 19 20 21 22 22 23 23 22 20 19 18 17 16 15 14 14 14 14 13 15 16 18 19 19 18 17 17 16
15 15 15 16 16 15 15 15 15 15 15 16 17 18 19 19 20 21 22 22 24 24 23 22 21 20 18 17 16 16 15 15 14 13 14 16 17 18 17 17 17 17 16
15 16 16 16 16 15 15 14 14 14 15 15 16 17 18 19 21 21 23 23 23 24 24 24 22 21 20 19 18 17 17 16 15 15 16 16 17 17 17 17 17 17 17
15 16 16 16 16 15 14 14 14 14 14 14 15 16 17 18 20 21 22 23 23 24 25 25 24 23 22 20 20 18 18 17 17 16 16 17 17 17 17 17 17 16 16
15 16 16 16 15 15 14 14 13 13 13 14 15 16 16 17 19 20 22 23 24 25 25 26 25 24 23 22 21 20 19 19 18 17 17 18 19 18 17 17 17 17 18
15 16 16 16 15 15 14 14 13 12 12 13 14 15 16 17 19 20 22 23 24 25 26 26 26 26 25 24 23 22 21 20 19 18 17 18 18 18 18 18 18 18 17
15 16 16 15 15 15 14 14 13 12 11 12 13 14 15 16 18 20 21 22 24 25 26 26 26 26 26 25 24 24 23 22 21 19 19 19 19 18 18 17 19 19 18
16 16 16 16 15 15 15 14 13 11 11 11 11 12 14 15 17 20 21 22 23 24 25 24 25 26 26 26 26 25 24 24 23 21 20 20 20 19 19 18 17 18 18
15 16 16 16 16 15 15 14 13 11 10 9 10 11 12 14 16 18 20 22 23 24 25 25 25 26 27 26 26 26 25 25 24 23 22 21 20 20 20 19 18 18 18
15 16 16 16 16 16 15 14 13 11 9 8 8 9 10 12 14 16 19 22 23 24 25 25 25 26 28 27 26 26 25 25 25 24 23 23 22 21 21 21 21 20 19
15 15 16 16 16 16 15 14 14 12 9 8 7 8 9 11 12 14 17 20 22 23 24 25 25 26 27 28 27 27 26 26 26 25 25 24 23 23 23 23 22 21 21
15 15 16 16 16 16 15 15 14 13 10 8 6 6 7 9 12 14 15 17 19 21 22 25 25 26 26 27 27 27 27 27 27 27 26 26 25 25 24 24 23 22 22
15 15 16 16 16 16 15 15 14 13 11 8 6 5 6 8 10 12 14 15 17 19 20 23 25 26 27 26 27 27 27 28 27 27 27 27 27 26 26 25 25 24 24
15 15 15 16 16 16 15 15 14 13 11 8 6 5 6 7 9 11 13 14 16 18 20 22 23 25 27 27 27 28 28 28 28 28 28 27 27 27 26 26 26 26 26
15 15 15 16 16 16 16 15 14 12 11 9 6 5 5 6 8 9 11 13 15 17 19 21 22 23 25 26 27 28 29 28 27 27 28 29 28 28 27 27 27 27 26
14 15 15 15 16 16 16 15 14 12 11 9 7 5 4 5 7 8 10 12 13 15 18 20 22 22 24 24 26 27 29 28 28 27 28 29 29 29 29 29 28 29 28
15 15 15 15 15 16 16 15 14 12 11 10 8 6 5 4 6 7 9 11 12 13 15 18 21 21 23 24 25 26 27 28 29 28 29 29 30 29 29 29 29 29 29
15 15 15 16 16 16 15 15 14 13 11 9 8 7 5 5 5 6 8 10 12 13 14 16 19 20 21 23 24 25 25 27 28 28 29 30 30 30 30 30 30 30 30
16 16 16 16 16 15 15 15 14 13 11 10 9 7 6 6 6 7 8 10 11 13 14 16 18 19 20 22 24 25 25 26 27 29 30 30 30 30 30 29 29 29 29
16 16 16 16 16 16 15 15 14 13 12 11 10 8 7 7 7 8 8 9 11 12 14 15 17 18 20 21 22 23 23 25 26 27 28 29 29 30 30 29 29 29 29
17 17 17 17 17 17 16 15 14 14 13 12 11 10 10 9 9 10 10 11 11 12 14 15 16 17 18 20 21 22 23 23 24 26 27 28 30 30 30 30 30 30 30
19 18 18 18 18 18 17 16 16 15 14 13 12 12 11 11 10 11 11 12 13 14 15 16 17 18 18 19 21 22 23 23 24 26 27 28 29 29 30 30 29 30 31
21 20 20 19 19 19 19 18 18 17 16 15 15 14 13 13 12 12 13 13 13 15 16 17 19 20 20 20 21 22 23 23 25 26 27 29 30 30 31 31 31 32 32
23 23 22 22 21 21 21 20 20 19 18 17 17 16 16 15 15 15 15 15 15 16 17 18 19 20 21 22 22 22 23 23 25 26 27 28 29 30 30 31 32 32 32
26 26 25 25 24 23 23 23 22 22 21 20 19 19 18 18 18 18 17 17 17 18 18 19 20 21 22 23 23 23 24 24 25 26 27 28 29 29 30 31 31 32 32
29 28 28 28 28 27 26 26 25 25 24 24 23 22 21 21 20 20 20 20 20 20 20 20 21 22 23 23 23 24 24 25 26 26 27 29 29 30 30 31 32 32 32
Wind_Direction
327 324 321 317 314 307 298 290 285 279 272 263 257 250 245 241 238 235 232 229 226 220 218 216 217 216 216 211 208 203 199 196 196 200 198 190 186 185 186 187 184 184 182
330 328 325 321 316 310 302 293 287 280 272 264 258 251 245 241 237 235 232 228 224 220 217 215 216 216 215 212 207 203 201 201 200 197 192 192 187 188 190 187 187 191 189
332 331 328 325 320 315 308 299 292 284 275 266 258 251 246 242 237 234 230 226 221 218 217 214 215 215 214 212 208 205 203 202 201 195 191 191 190 190 193 192 194 195 195
333 333 330 328 325 320 313 305 297 289 278 267 258 252 246 241 235 232 228 225 220 217 216 214 213 214 214 212 210 208 204 203 202 201 198 196 194 193 194 195 197 200 199
335 335 333 330 328 325 318 310 302 294 282 268 260 253 246 240 233 230 226 224 218 215 215 214 213 213 213 212 211 211 208 205 204 202 202 200 198 197 197 197 198 202 203
337 338 337 335 331 328 324 318 309 298 287 272 262 254 247 240 233 228 224 221 217 215 214 213 213 213 213 214 213 211 209 207 206 205 204 203 201 202 204 203 203 204 206
341 341 340 338 335 333 330 324 316 304 290 278 266 254 246 241 236 228 222 219 216 214 215 214 213 212 213 215 214 211 210 209 208 209 209 208 206 207 207 208 210 210 210
344 344 343 342 340 336 334 330 325 313 298 285 271 257 248 240 233 228 221 218 216 215 215 216 214 212 214 215 215 213 213 212 211 212 211 210 209 210 212 212 212 213 214
346 345 346 346 344 340 338 336 332 321 307 293 277 263 251 240 230 225 221 218 217 217 216 215 214 214 213 214 214 214 213 213 212 214 213 212 211 213 216 216 215 215 216
346 346 348 349 348 345 343 342 338 328 314 298 281 267 253 240 229 225 221 218 218 217 216 216 216 215 214 215 216 216 215 215 215 216 216 216 217 218 219 220 220 221 220
346 348 349 350 349 349 348 346 344 338 324 306 285 267 255 243 229 225 220 217 217 218 219 219 218 215 215 217 217 218 218 217 217 216 218 218 220 222 222 223 223 225 226
346 349 350 350 350 350 350 349 348 345 336 319 291 268 253 243 231 225 220 220 218 218 219 219 217 215 215 217 219 219 220 220 219 219 219 220 221 222 224 224 225 226 229
344 347 349 351 351 349 349 349 348 348 343 331 304 275 255 242 233 228 224 222 221 220 219 218 218 217 217 218 220 220 220 221 222 223 223 223 224 224 225 225 227 229 232
342 344 347 350 351 351 349 348 347 348 347 341 320 289 265 246 236 230 227 226 224 222 220 218 217 219 219 221 222 222 222 223 223 225 225 225 227 227 228 228 230 232 235
341 342 344 346 349 350 351 350 349 349 348 345 335 312 280 256 241 231 229 228 226 223 221 219 218 220 220 221 223 223 223 224 226 226 227 228 230 230 231 233 234 236 238
336 338 341 343 346 349 350 350 349 348 348 347 341 325 298 269 245 234 231 231 229 227 223 221 222 221 222 223 225 225 225 228 230 231 230 230 231 232 235 235 236 239 241
330 333 336 337 340 343 346 348 347 346 345 344 338 329 312 283 256 239 233 232 231 227 225 225 226 224 225 225 228 227 228 229 230 233 234 233 233 235 237 239 240 241 241
323 326 329 333 335 338 341 344 345 344 343 341 337 326 311 291 267 250 241 237 234 231 230 229 228 228 229 229 227 228 229 230 231 233 234 235 236 236 239 242 243 243 244
317 320 323 326 329 332 335 338 340 339 337 334 332 323 307 289 271 259 251 244 238 234 233 232 232 231 231 233 231 231 232 231 233 234 234 236 237 237 239 242 242 243 245
311 314 316 319 322 324 326 328 330 331 329 326 323 317 305 288 273 262 257 252 244 238 235 235 234 234 234 234 233 233 234 234 234 235 235 237 238 238 238 241 242 243 245
306 308 309 311 314 315 316 317 318 320 320 317 313 307 301 291 280 268 261 257 251 244 239 238 235 235 235 235 236 235 236 238 236 237 238 239 240 240 240 241 243 244 246
302 302 303 305 306 307 308 307 307 309 309 308 306 302 296 290 283 276 266 260 256 249 244 241 240 241 240 239 239 239 240 241 240 239 241 242 243 242 242 243 244 246 248
299 299 299 300 301 300 301 301 299 299 299 299 298 296 292 286 281 276 270 264 262 257 251 247 245 244 244 242 241 241 243 244 244 244 244 245 246 247 246 246 247 249 250
295 295 294 294 295 295 295 295 294 293 292 291 290 289 287 283 280 275 271 267 263 260 256 252 248 246 245 244 244 245 245 247 248 247 247 247 248 249 251 252 251 251 252
293 293 292 291 291 290 289 289 289 288 287 285 284 283 282 280 277 275 272 267 264 261 259 256 253 251 249 247 246 248 248 249 250 249 249 249 249 250 252 254 254 255 255
291 290 289 288 287 286 284 283 283 282 281 280 279 278 277 276 274 273 272 269 265 262 261 259 257 254 253 250 249 250 251 251 252 252 252 251 251 252 253 254 255 257 257
Height
5838 5836 5833 5831 5829 5827 5825 5824 5823 5822 5822 5822 5822 5823 5825 5826 5828 5830 5833 5836 5838 5841 5844 5846 5849 5851 5854 5856 5858 5860 5861 5863 5864 5864 5865 5868 5871 5874 5877 5879 5882 5884 5887
5836 5834 5831 5828 5826 5824 5822 5820 5819 5818 5818 5818 5818 5819 5820 5822 5824 5826 5828 5831 5834 5837 5840 5843 5846 5849 5851 5854 5856 5858 5860 5861 5863 5862 5862 5866 5870 5874 5877 5879 5882 5885 5887
5834 5831 5829 5826 5823 5821 5819 5817 5815 5814 5814 5813 5814 5814 5816 5817 5819 5821 5824 5827 5830 5833 5836 5840 5843 5846 5849 5852 5854 5856 5858 5860 5862 5862 5863 5867 5870 5874 5876 5879 5881 5884 5887
5832 5829 5827 5824 5821 5818 5816 5814 5812 5811 5810 5810 5810 5810 5811 5813 5815 5817 5819 5822 5826 5829 5833 5836 5840 5843 5846 5849 5852 5854 5857 5859 5861 5863 5864 5867 5870 5873 5876 5878 5881 5883 5886
5831 5828 5824 5821 5819 5816 5813 5811 5809 5808 5806 5806 5806 5806 5807 5809 5810 5813 5815 5818 5821 5825 5828 5832 5836 5839 5843 5846 5849 5852 5855 5857 5859 5862 5864 5866 5869 5872 5875 5877 5880 5882 5885
5829 5826 5823 5820 5817 5814 5811 5808 5806 5804 5803 5802 5802 5803 5803 5805 5807 5808 5811 5814 5817 5821 5824 5828 5832 5836 5840 5843 5846 5849 5852 5855 5858 5860 5863 5865 5868 5871 5874 5876 5879 5881 5883
5828 5824 5821 5818 5815 5812 5809 5806 5803 5802 5800 5799 5799 5799 5800 5801 5803 5805 5807 5811 5814 5817 5821 5825 5828 5832 5836 5839 5843 5846 5850 5853 5856 5858 5861 5864 5867 5869 5872 5875 5877 5880 5882
5826 5823 5820 5816 5813 5810 5807 5804 5801 5799 5797 5797 5796 5796 5797 5799 5799 5801 5804 5807 5810 5814 5817 5821 5825 5829 5833 5836 5840 5843 5847 5850 5853 5856 5859 5862 5865 5868 5870 5873 5875 5878 5880
5825 5822 5818 5815 5812 5808 5805 5802 5799 5797 5795 5794 5793 5794 5794 5795 5796 5798 5800 5804 5807 5810 5814 5818 5821 5825 5829 5833 5837 5840 5844 5847 5851 5854 5857 5859 5862 5866 5868 5871 5873 5876 5878
5824 5821 5817 5814 5810 5807 5804 5801 5798 5795 5793 5792 5791 5791 5792 5792 5794 5796 5798 5801 5804 5807 5811 5814 5818 5821 5825 5829 5833 5837 5840 5844 5847 5850 5854 5857 5860 5863 5865 5868 5871 5873 5876
5823 5820 5816 5813 5810 5806 5803 5800 5797 5794 5792 5790 5790 5789 5789 5790 5791 5793 5796 5798 5801 5804 5807 5811 5814 5818 5821 5826 5829 5833 5837 5840 5844 5847 5850 5854 5857 5859 5862 5865 5868 5870 5873
5822 5819 5816 5812 5809 5805 5802 5799 5796 5793 5791 5789 5788 5788 5788 5789 5790 5792 5794 5796 5798 5801 5804 5807 5810 5814 5818 5822 5825 5829 5833 5837 5840 5844 5846 5850 5853 5856 5859 5861 5864 5867 5870
5821 5818 5815 5812 5808 5805 5802 5799 5796 5793 5790 5788 5787 5786 5787 5787 5788 5790 5792 5793 5795 5798 5801 5804 5807 5811 5814 5818 5821 5825 5829 5833 5836 5840 5843 5846 5849 5852 5854 5857 5860 5863 5866
5820 5817 5814 5811 5808 5804 5801 5798 5795 5792 5790 5787 5786 5785 5785 5786 5787 5788 5790 5791 5793 5795 5798 5801 5804 5807 5810 5814 5818 5821 5825 5828 5832 5835 5839 5842 5844 5847 5850 5853 5856 5858 5861
5819 5816 5813 5810 5807 5804 5801 5798 5795 5792 5789 5787 5786 5785 5784 5784 5785 5786 5787 5789 5791 5793 5795 5798 5801 5803 5806 5810 5813 5817 5820 5824 5827 5831 5834 5837 5840 5843 5845 5848 5851 5854 5856
5818 5815 5813 5810 5807 5803 5800 5797 5794 5791 5789 5787 5786 5784 5784 5784 5784 5785 5786 5787 5788 5790 5792 5794 5797 5800 5803 5806 5809 5812 5816 5819 5823 5826 5829 5832 5835 5837 5840 5843 5846 5848 5851
5817 5814 5811 5809 5806 5803 5800 5797 5794 5791 5789 5787 5785 5784 5783 5783 5783 5783 5784 5785 5786 5788 5789 5792 5794 5796 5799 5802 5805 5808 5811 5814 5817 5820 5823 5826 5829 5832 5835 5837 5840 5842 5844
5815 5812 5810 5807 5805 5802 5799 5796 5793 5791 5788 5787 5785 5784 5783 5782 5782 5782 5783 5783 5784 5785 5787 5789 5791 5793 5795 5798 5801 5804 5806 5809 5812 5815 5817 5820 5823 5826 5828 5831 5833 5835 5838
5813 5810 5808 5806 5803 5800 5798 5795 5792 5790 5788 5786 5784 5783 5782 5781 5781 5781 5781 5781 5782 5783 5784 5786 5787 5789 5791 5794 5796 5799 5801 5804 5806 5809 5812 5814 5817 5820 5822 5824 5826 5829 5831
5810 5808 5806 5803 5801 5799 5796 5794 5791 5789 5787 5785 5783 5782 5781 5780 5779 5779 5779 5779 5780 5781 5782 5783 5784 5785 5787 5789 5791 5794 5796 5798 5801 5803 5806 5808 5811 5813 5816 5818 5820 5822 5824
5807 5805 5803 5801 5798 5796 5794 5792 5789 5787 5785 5783 5782 5780 5779 5778 5778 5777 5777 5777 5777 5778 5779 5779 5781 5782 5784 5785 5787 5789 5791 5793 5795 5798 5800 5803 5805 5807 5809 5811 5813 5815 5817
5803 5801 5799 5797 5795 5793 5791 5789 5787 5785 5783 5781 5780 5778 5777 5776 5775 5775 5774 5774 5774 5775 5775 5776 5777 5778 5779 5781 5782 5784 5786 5788 5790 5792 5794 5796 5798 5800 5802 5804 5806 5808 5810
5798 5796 5795 5793 5791 5789 5787 5785 5783 5781 5780 5778 5777 5775 5774 5773 5772 5771 5771 5771 5771 5771 5771 5772 5773 5773 5775 5776 5777 5779 5780 5782 5784 5785 5787 5789 5791 5793 5795 5797 5799 5800 5802
5793 5791 5789 5787 5786 5784 5782 5781 5779 5777 5775 5774 5772 5771 5770 5769 5768 5767 5767 5766 5766 5766 5766 5767 5768 5768 5769 5771 5772 5773 5774 5776 5777 5779 5780 5782 5784 5786 5787 5789 5790 5792 5794
5786 5784 5782 5781 5779 5778 5776 5774 5773 5771 5770 5769 5767 5766 5765 5764 5763 5763 5762 5761 5761 5761 5761 5761 5762 5763 5764 5765 5766 5767 5768 5770 5771 5772 5773 5775 5777 5778 5780 5781 5782 5784 5785
5778 5776 5775 5773 5771 5770 5768 5767 5765 5764 5763 5762 5761 5760 5759 5758 5758 5757 5756 5756 5755 5755 5755 5755 5756 5757 5757 5758 5759 5761 5762 5763 5764 5765 5766 5767 5769 5770 5772 5773 5774 5775 5776